Regional Weather Roundup
Issued by NWS

Home | Current Version | Previous Version | Graphics & Text | Print | Product List | Glossary Off
Versions: 1 2 3 4 5 6 7 8 9 10 11 12 13 14 15 16 17 18 19 20 21 22 23 24 25 26 27 28 29 30 31 32 33 34 35 36 37 38 39 40 41 42 43 44 45 46 47 48 49 50

000
ASUS43 KMPX 262110
RWRMN
WEATHER ROUNDUP FOR MINNESOTA
NATIONAL WEATHER SERVICE TWIN CITIES/CHANHASSEN MN
300 PM CST FRI DEC 26 2014


NOTE: "FAIR" INDICATES FEW OR NO CLOUDS BELOW 12,000 FEET WITH NO
SIGNIFICANT WEATHER AND/OR OBSTRUCTIONS TO VISIBILITY. N/A MEANS
CURRENT SKY AND/OR WEATHER CONDITIONS ARE NOT AVAILABLE.

MNZ060>063-068>070-262200-
   Twin Cities Metro

CITY           SKY/WX    TMP DP  RH WIND       PRES   REMARKS
TWIN CITIES    CLOUDY    32  25  75 N13       30.03R WCI  22
ST PAUL        CLOUDY    32  26  78 N13       30.04R WCI  22
CRYSTAL        CLOUDY    32  26  78 N9        30.03R WCI  24
BLAINE         CLOUDY    34  30  86 N9        30.03R WCI  26
LAKEVILLE      CLOUDY    30  27  86 N10       30.01S WCI  21
EDEN PRAIRIE   CLOUDY    32  25  75 N12       30.01S WCI  23
SOUTH ST PAUL  CLOUDY    32  28  83 N10G16    30.02S WCI  24
LAKE ELMO      CLOUDY    32  30  93 N10       30.03R WCI  24
$$
MNZ001>005-007-008-013>017-022>024-027-028-262200-
   Northwest Minnesota

CITY           SKY/WX    TMP DP  RH WIND       PRES   REMARKS
BEMIDJI        CLOUDY    22  15  73 N3        30.09R
HALLOCK        FLURRIES  12  10  92 NW17      30.19S WCI  -5
ROSEAU         FLURRIES  19  14  79 NW9       30.14R WCI   9
WARROAD        FLURRIES  19  16  86 NW10      30.14R WCI   8
THIEF RVR FALL CLOUDY    18  16  93 NW10      30.15R WCI   6
CROOKSTON      CLOUDY    19  16  86 NW13      30.19R WCI   7
FOSSTON        CLOUDY    21  16  79 NW13      30.13R WCI   9
DETROIT LAKES  PTSUNNY   25  21  86 N10       30.12R WCI  15
MOORHEAD       CLOUDY    25  21  86 N8        30.17R WCI  16
PARK RAPIDS    CLOUDY    25  16  68 N8        30.09R WCI  16
MAHNOMEN       CLOUDY    23  18  81 N9        30.12R WCI  13
$$
MNZ006-009>011-018-025>026-262200-
   North Central Minnesota

CITY           SKY/WX    TMP DP  RH WIND       PRES   REMARKS
BAUDETTE       CLOUDY    20  13  74 N12       30.11R WCI   8
FLAG ISLAND    CLOUDY    16  10  79 N9        30.13R WCI   4
INTL FALLS     FLURRIES  22  16  78 N10       30.09R WCI  11
WASKISH        CLOUDY    23  16  74 CALM      30.11R
BIG FORK       CLOUDY    25  18  74 NW6       30.09R WCI  18
LONGVILLE      CLOUDY    25  19  80 NW5       30.09R WCI  19
GRAND RAPIDS   CLOUDY    25  18  74 NW10      30.06R WCI  15
CRANE LAKE     LGT SNOW  25  21  86 CALM      30.09R
ORR            LGT SNOW  25  19  80 NW7       30.05R WCI  17
COOK           CLOUDY    25  19  80 NW7       30.06R WCI  17
WALKER         CLOUDY    23  16  73 N7        30.09R WCI  15
$$
MNZ012-019>021-037-262200-
   Northeast Minnesota

CITY           SKY/WX    TMP DP  RH WIND       PRES   REMARKS
DULUTH         FLURRIES  29  21  72 N7        30.03R WCI  22
ELY            CLOUDY    27  23  86 NW5       30.03R WCI  21
HIBBING        CLOUDY    28  18  66 N6        30.05R WCI  22
EVELETH        MOCLDY    27  21  80 NW7       30.05R WCI  19
DULUTH HARBOR  CLOUDY    32  27  80 CALM      30.08R
TWO HARBORS    CLOUDY    34  25  69 N3        30.02R
SILVER BAY     CLOUDY    32  21  64 NW3       30.03R
GRAND MARAIS     N/A     33  23  66 VRB5      30.05R WCI  29
G MARAIS ARPRT CLOUDY    25  19  80 N5        30.00R WCI  19
$$
MNZ029>031-032-039>041-046>048-054>057-064-262200-
   West Central Minnesota

CITY           SKY/WX    TMP DP  RH WIND       PRES   REMARKS
FERGUS FALLS   CLOUDY    23  16  74 N10       30.14F WCI  12
WHEATON        CLOUDY    23  18  80 N15       30.15R WCI  10
MORRIS         PTSUNNY   27  19  74 N13       30.08F WCI  16
ALEXANDRIA     CLOUDY    25  21  85 N13       30.07S WCI  14
ELBOW LAKE     CLOUDY    25  21  86 N12       30.10R WCI  14
WADENA         CLOUDY    25  19  80 N12       30.08S WCI  14
GLENWOOD       CLOUDY    27  21  80 N12       30.06F WCI  16
APPLETON       CLOUDY    27  23  86 N16       30.09R WCI  14
BENSON         CLOUDY    28  21  74 N9        30.07F WCI  20
ORTONVILLE     CLOUDY    25  19  80 N17       30.10R WCI  11
MADISON        CLOUDY    28  23  80 N18       30.09R WCI  16
WILLMAR        CLOUDY    28  23  80 N9        30.07R WCI  20
$$
MNZ033>034-036-042>043-049>051-058-059-262200-
   Central Minnesota

CITY           SKY/WX    TMP DP  RH WIND       PRES   REMARKS
ST CLOUD       CLOUDY    32  23  69 N13       30.04S WCI  22
SAUK CENTRE    CLOUDY    26  21  81 N10       30.06S WCI  16
PAYNESVILLE    CLOUDY    25  21  84 NW7       30.06S WCI  18
AITKIN         CLOUDY    30  21  69 NW6       30.05R WCI  24
PINE RIVER     CLOUDY    25  18  74 NW6       30.11R WCI  18
BRAINERD       CLOUDY    27  19  72 N10       30.08R WCI  17
STAPLES        CLOUDY    25  19  80 NW8       30.08R WCI  16
LONG PRAIRIE   CLOUDY    27  19  74 N7        30.06F WCI  19
LITTLE FALLS   CLOUDY    28  21  74 CALM      30.06S
LITCHFIELD     CLOUDY    30  27  86 N12       30.05R WCI  21
BUFFALO        CLOUDY    31  25  80 N6        30.05R WCI  25
MAPLE LAKE     CLOUDY    31  27  83 N9        30.05S WCI  23
$$
MNZ037-044-045-052-053-262200-
   East Central Minnesota

CITY           SKY/WX    TMP DP  RH WIND       PRES   REMARKS
PRINCETON      CLOUDY    30  25  80 N7        30.05R WCI  23
MORA           CLOUDY    32  23  69 N5        30.06S WCI  27
CAMBRIDGE      CLOUDY    32  23  69 N5        30.03R WCI  27
RUSH CITY      CLOUDY    31  25  80 N6        30.04S WCI  25
MOOSE LAKE     CLOUDY    30  23  74 N7        30.03F WCI  23
HINCKLEY       CLOUDY    32  27  80 N5        30.04F WCI  27
CLOQUET        CLOUDY    28  21  74 NW6       30.04R WCI  22
MCGREGOR       CLOUDY    28  23  80 NW8       30.06R WCI  20
$$
MNZ071>073-080-081-089-090-097-098-262200-
   Southwest Minnesota

CITY           SKY/WX    TMP DP  RH WIND       PRES   REMARKS
MONTEVIDEO     CLOUDY    27  25  93 N15       30.08R WCI  15
GRANITE FALLS  CLOUDY    27  24  86 NW13      30.08R WCI  17
CANBY          CLOUDY    25  22  89 N14G20    30.09R WCI  13
MARSHALL       CLOUDY    27  19  74 N16       30.06R WCI  14
REDWOOD FALLS  CLOUDY    30  23  75 N12       30.05R WCI  20
OLIVIA         CLOUDY    28  25  86 N10       30.04S WCI  19
PIPESTONE      CLOUDY    25  23  93 N14G21    30.02R WCI  13
WINDOM         CLOUDY    28  27  93 N18       30.00R WCI  16
WORTHINGTON    CLOUDY    27 -20  12 N17       30.01R WCI  14
JACKSON        CLOUDY    30  28  93 N15G21    29.99R WCI  19
TRACY          CLOUDY    28  26  90 N20       30.03R WCI  15
SLAYTON        CLOUDY    26  24  95 N15       30.02R WCI  13
$$
MNZ065>067-074>077-082>085-091>093-262200-
   South Central Minnesota

CITY           SKY/WX    TMP DP  RH WIND       PRES   REMARKS
MANKATO        CLOUDY    32  25  74 N13       30.00S WCI  22
NEW ULM        CLOUDY    30  27  86 N9        30.02S WCI  22
FAIRMONT       CLOUDY    30  25  80 N16       29.99R WCI  19
GLENCOE        CLOUDY    32  28  86 N12G17    30.03R WCI  23
FARIBAULT      CLOUDY    32  28  86 N10       30.00R WCI  24
OWATONNA       CLOUDY    32  28  86 N10       30.00R WCI  24
WASECA         CLOUDY    32  28  86 VRB15     30.00R WCI  22
ALBERT LEA     CLOUDY    32  30  93 N9        29.97R WCI  24
$$
MNZ078>079-086>088-094>096-262200-
   Southeast Minnesota

CITY           SKY/WX    TMP DP  RH WIND       PRES   REMARKS
ROCHESTER      CLOUDY    33  30  88 N14       29.96R FOG     WCI  23
RED WING       CLOUDY    34  28  80 N5        30.00R WCI  30
STANTON        CLOUDY    33  29  86 N12       29.99R WCI  24
DODGE CENTER   CLOUDY    32  30  93 N13       29.96S WCI  22
WINONA         CLOUDY    36  32  87 CALM      29.98R
AUSTIN         CLOUDY    32  30  93 N8        29.97R FOG     WCI  25
PRESTON        CLOUDY    32  30  94 N9        29.95R FOG     WCI  24
$$
ABBREVIATIONS USED IN REMARKS
   TC - TEMPERATURES IN CELSIUS
  WCI - WIND CHILL INDEX
   HX - HEAT INDEX
  VSB - VISIBILITY
$$


USA.gov is the U.S. government's official web portal to all federal, state and local government web resources and services.